Skip Page Navigation
NASA JPL Caltech
NASA Logo - Jet Propulsion Laboratory + View the NASA Portal
+ Center for Near-Earth Object Studies
JPL Home Earth Solar System Stars & Galaxies Technology
JPL Solar System Dynamics
BODIES ORBITS EPHEMERIDES TOOLS PHYSICAL DATA DISCOVERY FAQ SITE MAP
JPL Small-Body Database Browser
Search: [ help ]  
160001 Bakonybel (2006 GU31)
Classification: Main-belt Asteroid          SPK-ID: 2160001
Ephemeris | Orbit Diagram | Orbital Elements | Mission Design | Physical Parameters | Discovery Circumstances | Close-Approach Data ]

[ show orbit diagram ]
Orbital Elements at Epoch 2459000.5 (2020-May-31.0) TDB
Reference: JPL 15 (heliocentric ecliptic J2000)
 Element Value Uncertainty (1-sigma)   Units 
e .1023169792651073 4.457e-08  
a 3.134955190157315 3.4776e-08 au
q 2.814196044968948 1.4882e-07 au
i 20.22958592538725 5.6669e-06 deg
node 191.7453165053801 1.621e-05 deg
peri 307.0847120391904 3.5223e-05 deg
M 245.4844555996296 3.0819e-05 deg
tp 2459645.422270824067
(2022-Mar-06.92227082)
0.0001763 TDB
period 2027.427968075165
5.55
3.3735e-05
9.236e-08
d
yr
n .1775648780961541 2.9546e-09 deg/d
Q 3.455714335345681 3.8334e-08 au
  Orbit Determination Parameters
   # obs. used (total)      268  
   data-arc span      7141 days (19.55 yr)  
   first obs. used      2000-03-08  
   last obs. used      2019-09-26  
   planetary ephem.      DE431  
   SB-pert. ephem.      SB431-N16  
   condition code      0  
   norm. resid. RMS      .51611  
   source      ORB  
   producer      Otto Matic  
   solution date      2019-Nov-07 18:37:10  

Additional Information
 Earth MOID = 1.86586 au 
 Jupiter MOID = 1.63817 au 
 T_jup = 3.109 
[ show covariance matrix ]

Ephemeris | Orbit Diagram | Orbital Elements | Mission Design | Physical Parameters | Discovery Circumstances | Close-Approach Data ]

Physical Parameter Table
Parameter Symbol Value Units Sigma Reference Notes
absolute magnitude H 15.4   n/a MPO454057  
diameter diameter 5.083 km 0.299 urn:nasa:pds:neowise_diameters_albedos::2.0[mainbelt] (http://adsabs.harvard.edu/abs/2011ApJ...741...68M)  
geometric albedo albedo 0.052   0.010 urn:nasa:pds:neowise_diameters_albedos::2.0[mainbelt] (http://adsabs.harvard.edu/abs/2011ApJ...741...68M)  

160001 Bakonybél           Discovered 2006 Apr. 5 by K. Sárneczky at Piszkéstető.
The ancient village of Bakonybél (founded in 1018) is located in the heart of the High Bakony Landscape Protection Area. Because of its excellent dark night sky, the astronomical visitor center Pannon Csillagda and a Starry Sky Park is being set up in the area.
NOTE: some special characters may not display properly (any characters within {} are an attempt to place the proper accent above a character)
Reference: 20100923/MPCPages.arcLast Updated: 2010-12-06

[ hide close-approach data ]
Close-Approach Data   ...sorted by Date/Time (TDB)
Date/Time (TDB) Time Uncertainty
(days_HH:MM)
Body Nominal Distance (au) Minimum Distance (au) Maximum Distance (au) V-relative (km/s) V-infinity (km/s) JD (TDB) Time Uncertainty (minutes) Semi-major axis (km) Semi-minor axis (km) range-LOV angle (deg) N-sigma BP Orbit Ref. Reference Modified
1975-Dec-21 08:31 00:02 Jupiter 1.79007242114294 1.79007092582783 1.79007391647158 5.85469065445702 5.77330469274986 2442767.855181204 1.89825293798659 282.144803769373 30.8408624590691 76.0741042475806 3447369.31157918 T 15 CATAB v2.0f-lin.ifort 2019-Nov-07 18:37:11 2019-Nov-07 18:37
1986-Jul-30 04:52 00:01 Jupiter 1.79165463249211 1.79165355331041 1.79165571167972 5.25182732682919 5.16102416328302 2446641.702548567 1.44930834437729 209.13796811166 31.1145174574615 -77.4830648632483 2804855.90538882 T 15 CATAB v2.0f-lin.ifort 2019-Nov-07 18:37:11 2019-Nov-07 18:37
2070-Mar-26 18:09 00:02 Jupiter 1.66016465220383 1.66016413068535 1.66016517372278 5.68275703569829 5.59225533071193 2477197.256097445 2.35060988011262 413.167789886982 25.1257679746363 -89.4851142565592 3209205.51625015 T 15 CATAB v2.0f-lin.ifort 2019-Nov-07 18:37:11 2019-Nov-07 18:37
2153-Nov-18 04:54 00:06 Jupiter 1.78126150508111 1.78125719987484 1.78126581046285 5.79485734501419 5.71220928949877 2507748.704136722 6.28034770153601 923.476035488178 31.4827532903757 76.7008765256414 3311116.93965063 T 15 CATAB v2.0f-lin.ifort 2019-Nov-07 18:37:11 2019-Nov-07 18:37
2164-Jun-29 08:49 00:07 Jupiter 1.77572734305138 1.77572273266821 1.77573195362209 5.3126808466293 5.22212381436681 2511624.867602169 7.0195919427383 954.216791162616 30.0382406908633 -75.7570312864135 2878827.77825917 T 15 CATAB v2.0f-lin.ifort 2019-Nov-07 18:37:11 2019-Nov-07 18:37
Ephemeris | Orbit Diagram | Orbital Elements | Mission Design | Physical Parameters | Discovery Circumstances | Close-Approach Data ]
ABOUT SSD CREDITS/AWARDS PRIVACY/COPYRIGHT GLOSSARY LINKS
FirstGov 2020-Aug-14 06:10 UT
(server date/time)  
NASA Home Page
Site Manager:   Ryan S. Park
Webmaster  Alan B. Chamberlin